Location: Dodgeville, WI 53533, USA
(43.0344°N, 90.0900°W)
Time: 23:50:23
(UTC-06:00)

ISS - Pass Details

Date: 26 January 2021
Orbit: 417 x 422 km, 51.6° (Epoch: 08 March)

Event Time Altitude Azimuth Distance (km) Brightness Sun altitude
Rises 17:56:57 0° 279° (W) 2,369 1.4 -9.6°
Reaches altitude 10° 17:59:22 10° 295° (WNW) 1,506 -0.2 -10.1°
Maximum altitude 18:02:04 22° 348° (NNW) 987 -1.9 -10.5°
Enters shadow 18:04:28 12° 38° (NE) 1,410 -1.6 -11.0°
